When you browse on this site, cookies collect data to enhance your experience and personalize the content and advertising you see.
Visit our Privacy Policy to learn more. By continuing to use the site, you agree to this use of cookies and data.
  • In Slovakia
  • List of Countries
  • For 7 days
  • Water Temperature
  • Satellite Maps
  • Weather Map
  • Weather Widgets
  • user-avatar
    Login

    Hourly Weather Saurimo

    Today, 21 January, Monday

    Time Temperature Precipitation Wind Pressure Humidity
    00:00 +18°C° 0.6 mm 0 mps 671 mmHg 95%
    01:00 +20°C° 0 mm 1 mps 671 mmHg 97%
    02:00 +20°C° 0 mm 1 mps 671 mmHg 97%
    03:00 +20°C° 0 mm 1 mps 671 mmHg 97%
    04:00 +18°C° 0 mm 0 mps 671 mmHg 97%
    05:00 +20°C° 0 mm 1 mps 671 mmHg 96%
    06:00 +20°C° 0 mm 1 mps 672 mmHg 96%
    07:00 +21°C° 0 mm 1 mps 672 mmHg 95%
    08:00 +22°C° 0.7 mm 1 mps 672 mmHg 91%
    09:00 +24°C° 0.7 mm 2 mps 672 mmHg 87%
    10:00 +25°C° 0.7 mm 2 mps 673 mmHg 83%
    11:00 +25°C° 1 mm 2 mps 672 mmHg 82%
    12:00 +26°C° 1 mm 2 mps 671 mmHg 81%
    13:00 +26°C° 1 mm 2 mps 671 mmHg 80%
    14:00 +26°C° 1.1 mm 2 mps 670 mmHg 81%
    15:00 +26°C° 1.1 mm 2 mps 670 mmHg 81%
    16:00 +26°C° 1.1 mm 2 mps 670 mmHg 82%
    17:00 +25°C° 1.9 mm 2 mps 670 mmHg 86%
    18:00 +23°C° 1.9 mm 2 mps 670 mmHg 90%
    19:00 +21°C° 1.9 mm 2 mps 670 mmHg 94%
    20:00 +22°C° 1.4 mm 1 mps 670 mmHg 94%
    21:00 +21°C° 1.4 mm 1 mps 671 mmHg 94%
    22:00 +21°C° 1.4 mm 1 mps 671 mmHg 95%
    23:00 +21°C° 0.3 mm 1 mps 671 mmHg 95%

    Tomorrow, 22 January, Tuesday

    Time Temperature Precipitation Wind Pressure Humidity
    00:00 +21°C° 0.3 mm 1 mps 670 mmHg 95%
    01:00 +20°C° 0.3 mm 2 mps 670 mmHg 96%
    02:00 +19°C° 0 mm 2 mps 670 mmHg 96%
    03:00 +19°C° 0 mm 2 mps 670 mmHg 96%
    04:00 +19°C° 0 mm 2 mps 670 mmHg 96%
    05:00 +20°C° 0 mm 1 mps 670 mmHg 95%
    06:00 +20°C° 0 mm 1 mps 670 mmHg 95%
    07:00 +21°C° 0 mm 1 mps 671 mmHg 94%
    08:00 +21°C° 0.1 mm 2 mps 671 mmHg 89%
    09:00 +23°C° 0.1 mm 2 mps 672 mmHg 84%
    10:00 +25°C° 0.1 mm 3 mps 672 mmHg 79%
    11:00 +26°C° 0.1 mm 3 mps 671 mmHg 72%
    12:00 +27°C° 0.1 mm 3 mps 671 mmHg 65%
    13:00 +29°C° 0.1 mm 4 mps 670 mmHg 57%
    14:00 +29°C° 0.1 mm 4 mps 670 mmHg 59%
    15:00 +28°C° 0.1 mm 3 mps 670 mmHg 60%
    16:00 +28°C° 0.1 mm 3 mps 669 mmHg 62%
    17:00 +26°C° 0 mm 2 mps 669 mmHg 70%
    18:00 +24°C° 0 mm 2 mps 669 mmHg 78%
    19:00 +22°C° 0 mm 1 mps 669 mmHg 87%
    20:00 +22°C° 0 mm 1 mps 669 mmHg 89%
    21:00 +21°C° 0 mm 1 mps 670 mmHg 91%
    22:00 +21°C° 0 mm 1 mps 670 mmHg 93%
    23:00 +21°C° 0 mm 1 mps 670 mmHg 93%

    Day after tomorrow, 23 January, Wednesday

    Time Temperature Precipitation Wind Pressure Humidity
    00:00 +20°C° 0 mm 1 mps 670 mmHg 94%
    01:00 +19°C° 0 mm 2 mps 669 mmHg 94%
    02:00 +20°C° 0 mm 1 mps 669 mmHg 95%
    03:00 +20°C° 0 mm 1 mps 669 mmHg 95%
    04:00 +20°C° 0 mm 1 mps 669 mmHg 96%
    05:00 +20°C° 0 mm 1 mps 669 mmHg 94%
    06:00 +20°C° 0 mm 2 mps 670 mmHg 91%
    07:00 +20°C° 0 mm 2 mps 670 mmHg 89%
    08:00 +23°C° 0 mm 2 mps 671 mmHg 85%
    09:00 +24°C° 0 mm 2 mps 671 mmHg 80%
    10:00 +25°C° 0 mm 2 mps 671 mmHg 76%
    11:00 +26°C° 0.5 mm 2 mps 671 mmHg 73%
    12:00 +27°C° 0.5 mm 2 mps 670 mmHg 70%
    13:00 +28°C° 0.5 mm 2 mps 670 mmHg 67%
    14:00 +27°C° 0.1 mm 2 mps 669 mmHg 69%
    15:00 +27°C° 0.1 mm 2 mps 669 mmHg 70%
    16:00 +27°C° 0.1 mm 2 mps 668 mmHg 72%
    17:00 +25°C° 0.4 mm 2 mps 669 mmHg 79%
    18:00 +23°C° 0.4 mm 2 mps 669 mmHg 87%
    19:00 +22°C° 0.4 mm 1 mps 669 mmHg 94%
    20:00 +21°C° 0 mm 1 mps 669 mmHg 95%
    21:00 +21°C° 0 mm 1 mps 670 mmHg 96%
    22:00 +20°C° 0 mm 1 mps 670 mmHg 96%
    23:00 +20°C° 0 mm 1 mps 670 mmHg 97%

    24 January, Thursday

    Time Temperature Precipitation Wind Pressure Humidity
    00:00 +20°C° 0 mm 1 mps 669 mmHg 97%
    01:00 +20°C° 0 mm 1 mps 669 mmHg 98%
    02:00 +20°C° 0 mm 1 mps 669 mmHg 98%
    03:00 +19°C° 0 mm 1 mps 669 mmHg 98%
    04:00 +19°C° 0 mm 1 mps 669 mmHg 98%
    05:00 +20°C° 0 mm 1 mps 669 mmHg 97%
    06:00 +20°C° 0 mm 1 mps 670 mmHg 96%
    07:00 +21°C° 0 mm 1 mps 670 mmHg 95%
    08:00 +22°C° 0 mm 1 mps 670 mmHg 88%
    09:00 +24°C° 0 mm 1 mps 671 mmHg 81%
    10:00 +26°C° 0 mm 1 mps 671 mmHg 74%
    11:00 +27°C° 0.6 mm 1 mps 671 mmHg 72%
    12:00 +28°C° 0.6 mm 1 mps 670 mmHg 71%
    13:00 +29°C° 0.6 mm 1 mps 669 mmHg 70%
    14:00 +28°C° 0.5 mm 1 mps 669 mmHg 73%
    15:00 +27°C° 0.5 mm 1 mps 668 mmHg 77%
    16:00 +27°C° 0.5 mm 2 mps 668 mmHg 80%
    17:00 +25°C° 0.5 mm 1 mps 668 mmHg 83%
    18:00 +24°C° 0.5 mm 1 mps 668 mmHg 87%
    19:00 +20°C° 0.5 mm 0 mps 669 mmHg 90%
    20:00 +20°C° 0 mm 0 mps 669 mmHg 91%
    21:00 +20°C° 0 mm 0 mps 669 mmHg 91%
    22:00 +19°C° 0 mm 0 mps 670 mmHg 92%
    23:00 +19°C° 0 mm 0 mps 669 mmHg 92%

    25 January, Friday

    Time Temperature Precipitation Wind Pressure Humidity
    00:00 +19°C° 0 mm 0 mps 669 mmHg 93%
    01:00 +19°C° 0 mm 0 mps 669 mmHg 94%
    02:00 +18°C° 0 mm 0 mps 669 mmHg 94%
    03:00 +18°C° 0 mm 0 mps 669 mmHg 95%
    04:00 +18°C° 0 mm 0 mps 668 mmHg 95%
    05:00 +19°C° 0 mm 0 mps 669 mmHg 94%
    06:00 +19°C° 0 mm 0 mps 670 mmHg 92%
    07:00 +22°C° 0 mm 1 mps 670 mmHg 91%
    08:00 +24°C° 0 mm 1 mps 671 mmHg 80%
    09:00 +27°C° 0 mm 1 mps 671 mmHg 69%
    10:00 +29°C° 0 mm 2 mps 671 mmHg 59%
    11:00 +30°C° 0 mm 2 mps 671 mmHg 54%
    12:00 +31°C° 0 mm 2 mps 670 mmHg 50%
    13:00 +33°C° 0 mm 3 mps 670 mmHg 46%
    14:00 +31°C° 0 mm 2 mps 669 mmHg 53%
    15:00 +30°C° 0 mm 2 mps 669 mmHg 60%
    16:00 +29°C° 0 mm 2 mps 668 mmHg 66%
    17:00 +27°C° 1 mm 2 mps 668 mmHg 74%
    18:00 +25°C° 1 mm 2 mps 669 mmHg 82%
    19:00 +23°C° 1 mm 2 mps 669 mmHg 90%
    20:00 +23°C° 1.9 mm 1 mps 669 mmHg 91%
    21:00 +23°C° 1.9 mm 1 mps 670 mmHg 91%
    22:00 +22°C° 1.9 mm 1 mps 670 mmHg 92%
    23:00 +22°C° 0.1 mm 1 mps 670 mmHg 92%

    26 January, Saturday

    Time Temperature Precipitation Wind Pressure Humidity
    00:00 +22°C° 0.1 mm 1 mps 669 mmHg 92%
    01:00 +22°C° 0.1 mm 1 mps 669 mmHg 93%
    02:00 +22°C° 0.5 mm 1 mps 669 mmHg 94%
    03:00 +21°C° 0.5 mm 1 mps 669 mmHg 94%
    04:00 +21°C° 0.5 mm 1 mps 669 mmHg 95%
    05:00 +19°C° 1.1 mm 0 mps 670 mmHg 95%
    06:00 +20°C° 1.1 mm 0 mps 670 mmHg 95%
    07:00 +20°C° 1.1 mm 0 mps 671 mmHg 94%
    08:00 +24°C° 1.2 mm 1 mps 671 mmHg 90%
    09:00 +25°C° 1.2 mm 1 mps 671 mmHg 85%
    10:00 +27°C° 1.2 mm 1 mps 671 mmHg 80%
    11:00 +27°C° 1.6 mm 1 mps 671 mmHg 80%
    12:00 +27°C° 1.6 mm 1 mps 671 mmHg 79%
    13:00 +27°C° 1.6 mm 2 mps 670 mmHg 78%
    14:00 +27°C° 1.4 mm 1 mps 670 mmHg 81%
    15:00 +26°C° 1.4 mm 1 mps 670 mmHg 83%
    16:00 +26°C° 1.4 mm 1 mps 669 mmHg 85%
    17:00 +25°C° 0.6 mm 1 mps 670 mmHg 88%
    18:00 +24°C° 0.6 mm 2 mps 670 mmHg 91%
    19:00 +21°C° 0.6 mm 2 mps 670 mmHg 94%
    20:00 +22°C° 0 mm 1 mps 670 mmHg 95%
    21:00 +22°C° 0 mm 1 mps 670 mmHg 95%
    22:00 +21°C° 0 mm 1 mps 670 mmHg 95%
    23:00 +21°C° 0 mm 1 mps 670 mmHg 95%
    Show more